Time,TemperatureF,DewpointF,PressureIn,WindDirection,WindDirectionDegrees,WindSpeedMPH,WindSpeedGustMPH,Humidity,HourlyPrecipIn,Conditions,Clouds,dailyrainin,SolarRadiationWatts/m^2,SoftwareType,DateUTC
2013-02-08 00:01:00,27.0,26.0,-100.00,NNE,31,0.0,2.0,96,0.00,,,0.11,1.000000,,2013-02-08 08:01:00,
2013-02-08 00:10:00,26.0,25.0,-100.00,SE,130,0.0,2.0,95,0.00,,,0.11,1.000000,,2013-02-08 08:10:00,
2013-02-08 00:32:00,26.0,25.0,-100.00,SE,130,0.0,2.0,95,0.00,,,0.11,1.000000,,2013-02-08 08:32:00,
2013-02-08 00:42:00,26.0,25.0,-100.00,SE,130,0.0,2.0,95,0.00,,,0.11,1.000000,,2013-02-08 08:42:00,
2013-02-08 00:52:00,26.0,25.0,-100.00,SE,130,0.0,2.0,95,0.00,,,0.11,1.000000,,2013-02-08 08:52:00,
2013-02-08 01:02:00,26.0,25.0,-100.00,SE,130,0.0,2.0,95,0.00,,,0.11,1.000000,,2013-02-08 09:02:00,
2013-02-08 01:10:00,26.0,25.0,-100.00,ESE,114,0.0,0.0,95,0.00,,,0.10,1.000000,,2013-02-08 09:10:00,
2013-02-08 01:32:00,26.0,25.0,-100.00,ESE,114,0.0,0.0,95,0.00,,,0.10,1.000000,,2013-02-08 09:32:00,
2013-02-08 01:42:00,26.0,25.0,-100.00,ESE,114,0.0,0.0,95,0.00,,,0.10,1.000000,,2013-02-08 09:42:00,
2013-02-08 01:52:00,26.0,25.0,-100.00,ESE,114,0.0,0.0,95,0.00,,,0.10,1.000000,,2013-02-08 09:52:00,
2013-02-08 02:01:00,26.0,25.0,-100.00,ESE,114,0.0,0.0,95,0.00,,,0.10,1.000000,,2013-02-08 10:01:00,
2013-02-08 02:10:00,26.0,25.0,-100.00,ESE,114,0.0,2.0,94,0.00,,,0.03,1.000000,,2013-02-08 10:10:00,
2013-02-08 02:32:00,26.0,25.0,-100.00,ESE,114,0.0,2.0,94,0.00,,,0.03,1.000000,,2013-02-08 10:32:00,
2013-02-08 02:42:00,26.0,25.0,-100.00,ESE,114,0.0,2.0,94,0.00,,,0.03,1.000000,,2013-02-08 10:42:00,
2013-02-08 02:52:00,26.0,25.0,-100.00,ESE,114,0.0,2.0,94,0.00,,,0.03,1.000000,,2013-02-08 10:52:00,
2013-02-08 03:01:00,26.0,25.0,-100.00,ESE,114,0.0,2.0,94,0.00,,,0.03,1.000000,,2013-02-08 11:01:00,
2013-02-08 03:10:00,25.0,24.0,-100.00,ESE,110,0.0,1.0,94,0.00,,,0.02,1.000000,,2013-02-08 11:10:00,
2013-02-08 03:32:00,25.0,24.0,-100.00,ESE,110,0.0,1.0,94,0.00,,,0.02,1.000000,,2013-02-08 11:32:00,
2013-02-08 03:42:00,25.0,24.0,-100.00,ESE,110,0.0,1.0,94,0.00,,,0.02,1.000000,,2013-02-08 11:42:00,
2013-02-08 03:52:00,25.0,24.0,-100.00,ESE,110,0.0,1.0,94,0.00,,,0.02,1.000000,,2013-02-08 11:52:00,
2013-02-08 04:01:00,25.0,24.0,-100.00,ESE,110,0.0,1.0,94,0.00,,,0.02,1.000000,,2013-02-08 12:01:00,
2013-02-08 04:10:00,25.0,24.0,-100.00,East,92,1.0,2.0,94,0.00,,,0.01,1.000000,,2013-02-08 12:10:00,
2013-02-08 04:33:00,25.0,24.0,-100.00,East,92,1.0,2.0,94,0.00,,,0.01,1.000000,,2013-02-08 12:33:00,
2013-02-08 04:42:00,25.0,24.0,-100.00,East,92,1.0,2.0,94,0.00,,,0.01,1.000000,,2013-02-08 12:42:00,
2013-02-08 04:52:00,25.0,24.0,-100.00,East,92,1.0,2.0,94,0.00,,,0.01,1.000000,,2013-02-08 12:52:00,
2013-02-08 05:01:00,25.0,24.0,-100.00,East,92,1.0,2.0,94,0.00,,,0.01,1.000000,,2013-02-08 13:01:00,
2013-02-08 05:10:00,24.0,23.0,-100.00,ENE,77,0.0,2.0,94,0.00,,,0.01,1.000000,,2013-02-08 13:10:00,
2013-02-08 05:32:00,24.0,23.0,-100.00,ENE,77,0.0,2.0,94,0.00,,,0.01,1.000000,,2013-02-08 13:32:00,
2013-02-08 05:42:00,24.0,23.0,-100.00,ENE,77,0.0,2.0,94,0.00,,,0.01,1.000000,,2013-02-08 13:42:00,
2013-02-08 05:52:00,24.0,23.0,-100.00,ENE,77,0.0,2.0,94,0.00,,,0.01,1.000000,,2013-02-08 13:52:00,
2013-02-08 06:01:00,24.0,23.0,-100.00,ENE,77,0.0,2.0,94,0.00,,,0.01,1.000000,,2013-02-08 14:01:00,
2013-02-08 06:10:00,24.0,22.0,-100.00,ESE,111,0.0,2.0,93,0.00,,,0.00,1.000000,,2013-02-08 14:10:00,
2013-02-08 06:42:00,24.0,22.0,-100.00,ESE,111,0.0,2.0,93,0.00,,,0.00,1.000000,,2013-02-08 14:42:00,
2013-02-08 06:52:00,24.0,22.0,-100.00,ESE,111,0.0,2.0,93,0.00,,,0.00,1.000000,,2013-02-08 14:52:00,
2013-02-08 07:01:00,24.0,22.0,-100.00,ESE,111,0.0,2.0,93,0.00,,,0.00,1.000000,,2013-02-08 15:01:00,
2013-02-08 07:10:00,25.0,24.0,-100.00,NNE,26,0.0,2.0,94,0.00,,,0.00,1.000000,,2013-02-08 15:10:00,
2013-02-08 07:32:00,25.0,24.0,-100.00,NNE,26,0.0,2.0,94,0.00,,,0.00,1.000000,,2013-02-08 15:32:00,
2013-02-08 07:42:00,25.0,24.0,-100.00,NNE,26,0.0,2.0,94,0.00,,,0.00,1.000000,,2013-02-08 15:42:00,
2013-02-08 07:52:00,25.0,24.0,-100.00,NNE,26,0.0,2.0,94,0.00,,,0.00,1.000000,,2013-02-08 15:52:00,
2013-02-08 08:01:00,25.0,24.0,-100.00,NNE,26,0.0,2.0,94,0.00,,,0.00,1.000000,,2013-02-08 16:01:00,
2013-02-08 08:10:00,25.0,23.0,-100.00,ESE,123,1.0,2.0,93,0.00,,,-99.99,8.000000,,2013-02-08 16:10:00,
2013-02-08 08:32:00,25.0,23.0,-100.00,ESE,123,1.0,2.0,93,0.00,,,-99.99,8.000000,,2013-02-08 16:32:00,
2013-02-08 08:42:00,25.0,23.0,-100.00,ESE,123,1.0,2.0,93,0.00,,,-99.99,8.000000,,2013-02-08 16:42:00,
2013-02-08 08:52:00,25.0,23.0,-100.00,ESE,123,1.0,2.0,93,0.00,,,-99.99,8.000000,,2013-02-08 16:52:00,
2013-02-08 09:03:00,25.0,23.0,-100.00,ESE,123,1.0,2.0,93,0.00,,,-99.99,8.000000,,2013-02-08 17:03:00,
2013-02-08 09:10:00,28.0,26.0,-100.00,SE,140,1.0,3.0,93,0.00,,,0.00,41.000000,,2013-02-08 17:10:00,
2013-02-08 09:33:00,28.0,26.0,-100.00,SE,140,1.0,3.0,93,0.00,,,0.00,41.000000,,2013-02-08 17:33:00,
2013-02-08 09:42:00,28.0,26.0,-100.00,SE,140,1.0,3.0,93,0.00,,,0.00,41.000000,,2013-02-08 17:42:00,
2013-02-08 09:52:00,28.0,26.0,-100.00,SE,140,1.0,3.0,93,0.00,,,0.00,41.000000,,2013-02-08 17:52:00,
2013-02-08 10:01:00,28.0,26.0,-100.00,SE,140,1.0,3.0,93,0.00,,,0.00,41.000000,,2013-02-08 18:01:00,
2013-02-08 10:10:00,36.0,33.0,-100.00,SSW,213,0.0,3.0,87,0.00,,,0.00,262.000000,,2013-02-08 18:10:00,
2013-02-08 10:44:00,36.0,33.0,-100.00,SSW,213,0.0,3.0,87,0.00,,,0.00,262.000000,,2013-02-08 18:44:00,
2013-02-08 10:52:00,36.0,33.0,-100.00,SSW,213,0.0,3.0,87,0.00,,,0.00,262.000000,,2013-02-08 18:52:00,
2013-02-08 11:01:00,36.0,33.0,-100.00,SSW,213,0.0,3.0,87,0.00,,,0.00,262.000000,,2013-02-08 19:01:00,
2013-02-08 11:10:00,35.0,32.0,-100.00,SSW,201,1.0,6.0,88,0.00,,,0.00,164.000000,,2013-02-08 19:10:00,
2013-02-08 11:42:00,35.0,32.0,-100.00,SSW,201,1.0,6.0,88,0.00,,,0.00,164.000000,,2013-02-08 19:42:00,
2013-02-08 11:52:00,35.0,32.0,-100.00,SSW,201,1.0,6.0,88,0.00,,,0.00,164.000000,,2013-02-08 19:52:00,
2013-02-08 12:01:00,35.0,32.0,-100.00,SSW,201,1.0,6.0,88,0.00,,,0.00,164.000000,,2013-02-08 20:01:00,
2013-02-08 12:10:00,37.0,32.0,-100.00,South,188,3.0,8.0,83,0.00,,,0.00,186.000000,,2013-02-08 20:10:00,
2013-02-08 12:42:00,37.0,32.0,-100.00,South,188,3.0,8.0,83,0.00,,,0.00,186.000000,,2013-02-08 20:42:00,
2013-02-08 12:52:00,37.0,32.0,-100.00,South,188,3.0,8.0,83,0.00,,,0.00,186.000000,,2013-02-08 20:52:00,
2013-02-08 13:01:00,37.0,32.0,-100.00,South,188,3.0,8.0,83,0.00,,,0.00,186.000000,,2013-02-08 21:01:00,
2013-02-08 13:10:00,38.0,32.0,-100.00,SW,217,2.0,7.0,79,0.00,,,0.00,244.000000,,2013-02-08 21:10:00,
2013-02-08 13:42:00,38.0,32.0,-100.00,SW,217,2.0,7.0,79,0.00,,,0.00,244.000000,,2013-02-08 21:42:00,
2013-02-08 13:52:00,38.0,32.0,-100.00,SW,217,2.0,7.0,79,0.00,,,0.00,244.000000,,2013-02-08 21:52:00,
2013-02-08 14:01:00,38.0,32.0,-100.00,SW,217,2.0,7.0,79,0.00,,,0.00,244.000000,,2013-02-08 22:01:00,
2013-02-08 14:10:00,41.0,32.0,-100.00,WSW,256,1.0,11.0,71,0.00,,,-99.99,342.000000,,2013-02-08 22:10:00,
2013-02-08 14:42:00,41.0,32.0,-100.00,WSW,256,1.0,11.0,71,0.00,,,-99.99,342.000000,,2013-02-08 22:42:00,
2013-02-08 14:52:00,41.0,32.0,-100.00,WSW,256,1.0,11.0,71,0.00,,,-99.99,342.000000,,2013-02-08 22:52:00,
2013-02-08 15:01:00,41.0,32.0,-100.00,WSW,256,1.0,11.0,71,0.00,,,-99.99,342.000000,,2013-02-08 23:01:00,
2013-02-08 15:10:00,40.0,30.0,-100.00,SSW,204,2.0,9.0,66,0.00,,,0.00,152.000000,,2013-02-08 23:10:00,
2013-02-08 15:32:00,40.0,30.0,-100.00,SSW,204,2.0,9.0,66,0.00,,,0.00,152.000000,,2013-02-08 23:32:00,
2013-02-08 15:42:00,40.0,30.0,-100.00,SSW,204,2.0,9.0,66,0.00,,,0.00,152.000000,,2013-02-08 23:42:00,
2013-02-08 15:52:00,40.0,30.0,-100.00,SSW,204,2.0,9.0,66,0.00,,,0.00,152.000000,,2013-02-08 23:52:00,
2013-02-08 16:01:00,40.0,30.0,-100.00,SSW,204,2.0,9.0,66,0.00,,,0.00,152.000000,,2013-02-09 00:01:00,
2013-02-08 16:10:00,38.0,28.0,-100.00,West,279,2.0,14.0,67,0.00,,,0.00,59.000000,,2013-02-09 00:10:00,
2013-02-08 16:32:00,38.0,28.0,-100.00,West,279,2.0,14.0,67,0.00,,,0.00,59.000000,,2013-02-09 00:32:00,
2013-02-08 16:42:00,38.0,28.0,-100.00,West,279,2.0,14.0,67,0.00,,,0.00,59.000000,,2013-02-09 00:42:00,
2013-02-08 16:52:00,38.0,28.0,-100.00,West,279,2.0,14.0,67,0.00,,,0.00,59.000000,,2013-02-09 00:52:00,
2013-02-08 17:01:00,38.0,28.0,-100.00,West,279,2.0,14.0,67,0.00,,,0.00,59.000000,,2013-02-09 01:01:00,
2013-02-08 17:10:00,34.0,29.0,-100.00,West,268,0.0,7.0,82,0.00,,,-99.99,23.000000,,2013-02-09 01:10:00,
2013-02-08 17:32:00,34.0,29.0,-100.00,West,268,0.0,7.0,82,0.00,,,-99.99,23.000000,,2013-02-09 01:32:00,
2013-02-08 17:42:00,34.0,29.0,-100.00,West,268,0.0,7.0,82,0.00,,,-99.99,23.000000,,2013-02-09 01:42:00,
2013-02-08 17:52:00,34.0,29.0,-100.00,West,268,0.0,7.0,82,0.00,,,-99.99,23.000000,,2013-02-09 01:52:00,
2013-02-08 18:01:00,34.0,29.0,-100.00,West,268,0.0,7.0,82,0.00,,,-99.99,23.000000,,2013-02-09 02:01:00,
2013-02-08 18:10:00,31.0,28.0,-100.00,WNW,287,1.0,4.0,90,0.00,,,0.00,2.000000,,2013-02-09 02:10:00,
2013-02-08 18:42:00,31.0,28.0,-100.00,WNW,287,1.0,4.0,90,0.00,,,0.00,2.000000,,2013-02-09 02:42:00,
2013-02-08 18:52:00,31.0,28.0,-100.00,WNW,287,1.0,4.0,90,0.00,,,0.00,2.000000,,2013-02-09 02:52:00,
2013-02-08 19:01:00,31.0,28.0,-100.00,WNW,287,1.0,4.0,90,0.00,,,0.00,2.000000,,2013-02-09 03:01:00,
2013-02-08 19:10:00,32.0,30.0,-100.00,SW,231,1.0,7.0,92,0.00,,,0.00,1.000000,,2013-02-09 03:10:00,
2013-02-08 19:32:00,32.0,30.0,-100.00,SW,231,1.0,7.0,92,0.00,,,0.00,1.000000,,2013-02-09 03:32:00,
2013-02-08 19:42:00,32.0,30.0,-100.00,SW,231,1.0,7.0,92,0.00,,,0.00,1.000000,,2013-02-09 03:42:00,
2013-02-08 19:52:00,32.0,30.0,-100.00,SW,231,1.0,7.0,92,0.00,,,0.00,1.000000,,2013-02-09 03:52:00,
2013-02-08 20:02:00,32.0,30.0,-100.00,SW,231,1.0,7.0,92,0.00,,,0.00,1.000000,,2013-02-09 04:02:00,
2013-02-08 20:10:00,31.0,29.0,-100.00,NE,43,0.0,6.0,92,0.00,,,0.00,1.000000,,2013-02-09 04:10:00,
2013-02-08 20:32:00,31.0,29.0,-100.00,NE,43,0.0,6.0,92,0.00,,,0.00,1.000000,,2013-02-09 04:32:00,
2013-02-08 20:42:00,31.0,29.0,-100.00,NE,43,0.0,6.0,92,0.00,,,0.00,1.000000,,2013-02-09 04:42:00,
2013-02-08 20:52:00,31.0,29.0,-100.00,NE,43,0.0,6.0,92,0.00,,,0.00,1.000000,,2013-02-09 04:52:00,
2013-02-08 21:02:00,31.0,29.0,-100.00,NE,43,0.0,6.0,92,0.00,,,0.00,1.000000,,2013-02-09 05:02:00,
2013-02-08 21:10:00,30.0,28.0,-100.00,East,83,0.0,3.0,94,0.00,,,-99.99,1.000000,,2013-02-09 05:10:00,
2013-02-08 21:32:00,30.0,28.0,-100.00,East,83,0.0,3.0,94,0.00,,,-99.99,1.000000,,2013-02-09 05:32:00,
2013-02-08 21:42:00,30.0,28.0,-100.00,East,83,0.0,3.0,94,0.00,,,-99.99,1.000000,,2013-02-09 05:42:00,
2013-02-08 21:52:00,30.0,28.0,-100.00,East,83,0.0,3.0,94,0.00,,,-99.99,1.000000,,2013-02-09 05:52:00,
2013-02-08 22:01:00,30.0,28.0,-100.00,East,83,0.0,3.0,94,0.00,,,-99.99,1.000000,,2013-02-09 06:01:00,
2013-02-08 22:10:00,29.0,28.0,-100.00,NNE,15,0.0,5.0,95,0.00,,,0.00,1.000000,,2013-02-09 06:10:00,
2013-02-08 22:32:00,29.0,28.0,-100.00,NNE,15,0.0,5.0,95,0.00,,,0.00,1.000000,,2013-02-09 06:32:00,
2013-02-08 22:42:00,29.0,28.0,-100.00,NNE,15,0.0,5.0,95,0.00,,,0.00,1.000000,,2013-02-09 06:42:00,
2013-02-08 22:52:00,29.0,28.0,-100.00,NNE,15,0.0,5.0,95,0.00,,,0.00,1.000000,,2013-02-09 06:52:00,
2013-02-08 23:01:00,29.0,28.0,-100.00,NNE,15,0.0,5.0,95,0.00,,,0.00,1.000000,,2013-02-09 07:01:00,
2013-02-08 23:10:00,30.0,29.0,-100.00,ENE,61,0.0,3.0,96,0.00,,,0.00,1.000000,,2013-02-09 07:10:00,
2013-02-08 23:42:00,30.0,29.0,-100.00,ENE,61,0.0,3.0,96,0.00,,,0.00,1.000000,,2013-02-09 07:42:00,
2013-02-08 23:52:00,30.0,29.0,-100.00,ENE,61,0.0,3.0,96,0.00,,,0.00,1.000000,,2013-02-09 07:52:00,